User: anonymous   Login
Location: *
(37.5724°S, 58.0067°E)
Time: 02:10:20
(UTC+00:00)
Language:

SL-16 R/B - Orbit

View from above orbital plane
View from above orbital plane
View from above satellite
View from above satellite

Ground track
Ground track

The orbit data is extracted from the following two-line orbital elements,

1 27006U 01056F   20332.33837692 -.00000044 +00000-0 +52832-6 0  9993
2 27006 099.4967 101.6063 0013856 279.5028 133.5990 13.70964284948942
Epoch (UTC): 27 November 2020 08:07:15
Eccentricity: 0.0013856
inclination: 99.4967°
perigee height: 986 km
apogee height: 1006 km
right ascension of ascending node: 101.6063°
argument of perigee: 279.5028°
revolutions per day: 13.70964284
mean anomaly at epoch: 133.5990°
orbit number at epoch: 94894

The dashed part of the orbit path shows where the satellite is in the earth's shadow,  

DLR